Mobile, AL

4:20 PM CST on January 20, 2017 (GMT -0600)
Mobile Regional

Weather History for KMOB - April, 2014

Change the Weather History Date:

Wednesday, April 30, 2014

  Actual Average Record
Temperature  
Mean Temperature 71 °F 70 °F  
Max Temperature 80 °F 81 °F 91 °F (2012)
Min Temperature 61 °F 59 °F 45 °F (1874)
Degree Days  
Heating Degree Days 0 1  
Month to date heating degree days 68 62  
Since 1 July heating degree days 2047 1691  
Cooling Degree Days 6 6  
Month to date cooling degree days 102 104  
Year to date cooling degree days 115 159  
Growing Degree Days 21 (Base 50)    
Moisture  
Dew Point 55 °F    
Average Humidity 65    
Maximum Humidity 90    
Minimum Humidity 39    
Precipitation  
Precipitation 0.59 in 0.14 in 4.43 in (2005)
Month to date precipitation 18.09 4.79  
Year to date precipitation 31.71 21.70  
Sea Level Pressure  
Sea Level Pressure 29.93 in    
Wind  
Wind Speed 9 mph (NW)    
Max Wind Speed 20 mph    
Max Gust Speed 26 mph    
Visibility 8 miles    
Events Rain    
T = Trace of Precipitation, MM = Missing Value Source: NWS Daily Summary

Daily Weather History Graph

Daily Weather History Graph

Search for Another Location

Airport or City:

Trip Planner

Search our weather history database for the weather conditions in past years. The results will help you decide how hot, cold, wet, or windy it might be!

Date:

Astronomy

Apr. 30, 2014 Rise Set
Actual Time 6:09 AM CDT 7:30 PM CDT
Civil Twilight 5:44 AM CDT 7:56 PM CDT
Nautical Twilight 5:14 AM CDT 8:26 PM CDT
Astronomical Twilight 4:42 AM CDT 8:58 PM CDT
Moon 7:13 AM CDT (4/30) 9:06 PM CDT (4/30)
Length of Visible Light 14h 11m
Length of Day
13h 20m
New Moon, 2% of the Moon is Illuminated
Apr 30
New Moon
May 6
First Quarter
May 14
Full
May 21
Last Quarter
May 28
New

Hourly Weather History & Observations

Time (CDT) Temp. Dew Point Humidity Pressure Visibility Wind Dir Wind Speed Gust Speed Precip Events Conditions
5:56 AM 67.3 °F 64.2 °F 90% 29.86 in 3.0 mi North 11.5 mph - N/A Rain Rain
6:13 AM 66.2 °F 60.8 °F 83% 29.86 in 4.0 mi North 5.8 mph - N/A Rain Light Rain
6:33 AM 66.2 °F 60.1 °F 81% 29.86 in 5.0 mi North 11.5 mph - N/A Rain Light Rain
6:56 AM 66.0 °F 59.9 °F 81% 29.85 in 6.0 mi North 8.1 mph - N/A   Mostly Cloudy
7:56 AM 64.4 °F 58.1 °F 80% 29.87 in 7.0 mi North 11.5 mph - N/A   Mostly Cloudy
8:56 AM 66.6 °F 57.2 °F 72% 29.89 in 7.0 mi North 6.9 mph - N/A   Scattered Clouds
9:56 AM 71.6 °F 57.2 °F 60% 29.92 in 10.0 mi North 5.8 mph - N/A   Scattered Clouds
10:56 AM 75.2 °F 53.4 °F 47% 29.95 in 10.0 mi NNW 11.5 mph - N/A   Mostly Cloudy
11:49 AM 74.1 °F 52.9 °F 47% 29.92 in 10.0 mi North 9.2 mph - N/A   Scattered Clouds
12:56 PM 77.0 °F 50.0 °F 39% 29.95 in 10.0 mi SW 3.5 mph - N/A   Scattered Clouds
1:56 PM 78.1 °F 52.0 °F 40% 29.93 in 10.0 mi Calm Calm - N/A   Scattered Clouds
2:56 PM 78.8 °F 53.4 °F 41% 29.94 in 10.0 mi South 5.8 mph - N/A   Partly Cloudy
3:56 PM 76.6 °F 57.9 °F 52% 29.93 in 10.0 mi WSW 11.5 mph - N/A   Scattered Clouds
4:56 PM 75.9 °F 54.9 °F 48% 29.94 in 10.0 mi WSW 11.5 mph - N/A   Mostly Cloudy
5:56 PM 75.2 °F 53.6 °F 47% 29.95 in 10.0 mi South 11.5 mph - N/A   Mostly Cloudy
6:56 PM 71.8 °F 52.0 °F 50% 29.96 in 10.0 mi Variable 6.9 mph - N/A   Mostly Cloudy
7:56 PM 69.8 °F 51.8 °F 53% 29.98 in 10.0 mi South 6.9 mph - N/A   Mostly Cloudy
9:56 PM 66.2 °F 53.6 °F 64% 30.03 in 10.0 mi NW 10.4 mph - N/A   Partly Cloudy
10:56 PM 62.1 °F 55.9 °F 80% 30.02 in 10.0 mi North 8.1 mph - 0.00 in   Mostly Cloudy